Regional Weather Roundup
Issued by NWS Sterling, VA

Home | Current Version | Previous Version | Text Only | Print | Product List | Glossary On
Versions: 1 2 3 4 5 6 7 8 9 10 11 12 13 14 15 16 17 18 19 20 21 22 23 24 25 26 27 28 29 30 31 32 33 34 35 36 37 38 39 40 41 42 43 44 45 46 47 48
000
ASUS41 KLWX 190810
RWRLWX

REGIONAL WEATHER ROUNDUP
NATIONAL WEATHER SERVICE BALTIMORE MD/WASHINGTON DC
300 AM EST FRI DEC 19 2014

Note: "FAIR" indicates few or no clouds below 12,000 feet
with no significant weather and/or obstructions to visibility.
 TC=TEMPERATURE CELSIUS

 * =Non NWS site. Station does not report precipitation (e.g. rain,
    snow, etc.), thunder, or fog.

DCZ001-MDZ009-015-VAZ040>042-051-053>054-190900-
WASHINGTON METRO

CITY           SKY/WX    TMP DP  RH WIND       PRES   REMARKS
WASHINGTON NAT CLOUDY    38  21  50 W7        30.14R
DULLES         CLOUDY    32  22  66 W7        30.12R
ANDREWS AFB    MOCLDY    34  23  64 NW12      30.11R WCI  25
FT BELVOIR     CLOUDY    35  22  59 W7        30.14R
QUANTICO       CLOUDY    36  22  56 N8        30.14S
COLLEGE PARK*  CLOUDY    36  25  64 W6        30.12S
LEESBURG*      CLOUDY    34  27  75 NW6       30.13S
MANASSAS*      CLOUDY    34  25  69 NW5       30.14S
GAITHERSBURG*  CLOUDY    32  21  64 NW8       30.14R WCI  25

$$

MDZ006>007-011-014-190900-
BALTIMORE METRO

CITY           SKY/WX    TMP DP  RH WIND       PRES   REMARKS
BWI AIRPORT    CLOUDY    34  23  64 W6        30.10R
MD SCIENCE CTR   N/A     35  23  61 MISG      30.10R
MARTIN STATE   CLOUDY    36  27  69 W8        30.12R
ANNAPOLIS      CLOUDY    35  23  61 W7        30.11R
FORT MEADE*    CLOUDY    34  25  69 W7        30.13S

$$

MDZ012-015-019>023-190900-
MARYLAND EASTERN SHORE

CITY           SKY/WX    TMP DP  RH WIND       PRES   REMARKS
OCEAN CITY     CLOUDY    35  26  69 VRB7      30.09R
SALISBURY      CLOUDY    38  25  59 NW8       30.10R
BAY BRIDGE AP*   N/A     36  25  64 W9        30.11S WCI  29
CAMBRIDGE*     CLOUDY    37  27  65 NW9       30.10S
EASTON*        CLOUDY    37  28  68 NW7       30.13S

$$

MDZ017>025-190900-
SOUTHERN MARYLAND

CITY           SKY/WX    TMP DP  RH WIND       PRES   REMARKS
PATUXENT RIVER CLOUDY    36  23  59 NW13      30.11R WCI  27
ST INIGOES     CLOUDY    36  22  56 W5        30.11R
LEONARDTOWN*   CLOUDY    34  23  64 NW3       30.13S

$$

MDZ003>005-190900-
NORTH CENTRAL MARYLAND

CITY           SKY/WX    TMP DP  RH WIND       PRES   REMARKS
FREDERICK*     NOT AVBL
HAGERSTOWN APT CLOUDY    33  22  63 W10       30.09R WCI  25
WESTMINSTER*   CLOUDY    32  25  74 W8        30.07R WCI  25

$$

MDZ501>502-190900-
WESTERN MARYLAND

CITY           SKY/WX    TMP DP  RH WIND       PRES   REMARKS
OAKLAND*       CLOUDY    21 N/A N/A W9        30.03R FOG     WCI  11
CUMBERLAND*    CLOUDY    32  21  64 CALM      30.18R

$$

VAZ025>031-190900-
SHENANDOAH VALLEY

CITY           SKY/WX    TMP DP  RH WIND       PRES   REMARKS
WINCHESTER*    CLOUDY    34  19  55 NW10      30.12R WCI  26
FRONT ROYAL*   CLOUDY    32  23  69 CALM      30.11R
LURAY*         CLOUDY    32  28  86 CALM      30.09F
NEW MARKET*    CLOUDY    31  23  74 CALM      30.10S
STAUNTON*      CLOUDY    31  24  76 CALM      30.10F
WAYNESBORO*    CLOUDY    31  24  75 CALM      30.07S

$$

WVZ021-048>050-054>055-190900-
EASTERN WEST VIRGINIA PANHANDLE

CITY           SKY/WX    TMP DP  RH WIND       PRES   REMARKS
MARTINSBURG    CLOUDY    34  19  54 W12       30.12R WCI  25
PETERSBURG*    CLOUDY    31  22  71 CALM      30.13R

$$

VAZ036>039-050-190900-
CENTRAL FOOTHILLS

CITY           SKY/WX    TMP DP  RH WIND       PRES   REMARKS
CHARLOTTESVILL CLOUDY    32  24  72 CALM      30.10S
CULPEPER*      CLOUDY    34  25  69 CALM      30.13S
ORANGE*        CLOUDY    32  30  93 CALM      30.13F
GORDONSVILLE*  CLOUDY    32  26  77 CALM      30.10F
WARRENTON*     CLOUDY    35  28  78 N3        30.12S

$$

VAZ055>057-190900-
NORTH AND CENTRAL PIEDMONT

CITY           SKY/WX    TMP DP  RH WIND       PRES   REMARKS
FREDERICKSBRG* CLOUDY    36  25  64 NW3       30.13S
STAFFORD*      CLOUDY    34  23  63 N3        30.17S

$$

NCZ024-NYZ072-PAZ021-071-VAZ022-071-190900-
OTHER REGIONAL OBSERVATIONS

CITY           SKY/WX    TMP DP  RH WIND       PRES   REMARKS
NEW YORK CITY  PTCLDY    37  24  59 NW6       29.99R
PHILADELPHIA   MOCLDY    37  25  61 W9        30.05R
PITTSBURGH     CLOUDY    27  24  89 W7        30.14S FOG
ROANOKE        CLEAR     36  20  52 NW10      30.14R WCI  28
RICHMOND       CLOUDY    35  24  64 N5        30.12F
RALEIGH        MOCLDY    39  31  72 CALM      30.11R

$$

ANZ530>537-190900-
MARINE OBSERVATIONS

STATION/POSITION TIME  TEMP    WIND        PRES
                       AIR SEA DIR/SP/G
                 (UTC) (F)     (DEG/KT/KT) (MB)
THOMAS PT LIGHT  0800   35 41  290/ 12/ 14 1020.8R
BALT KEY BRIDGE  0800   36     280/ 12/ 13 1019.2S
COVE POINT       0800   35     330/ 10/ 14 1019.5R
LEWISETTA        0800   36 43  310/  7/  8 1019.5F
SOLOMONS ISLAND  0800      44                N/A
PINEY POINT      0800          330/ 13/ 15   N/A

$$




USA.gov is the U.S. government's official web portal to all federal, state and local government web resources and services.